RYR47QP LIRP-EICK

Flight info

Callsign RYR47QP
Flight time N/A
Altitude 36000
Route BEROK DCT CANNE DCT BEGAR DCT SUTAL N852 DIK M624 BUB L608 DENUT L610 KOPUL Q60 OKSAW DCT PENWU DCT GOTEM GOTEM1G
Aircraft B738/M-SDE2E3FGHIRWXY/LB1

Departure

Time N/A
Airport Pisa International Airport (LIRP)

Arrival

Time 2026-05-04 16:05
Airport Cork International Airport (EICK)
Time Latitude Longitude Altitude Speed Heading
2026-05-04 15:02 51.33905 2.86131 36000 ft 443 kts 277°
2026-05-04 15:02 51.34521 2.81239 35990 ft 443 kts 277°
2026-05-04 15:02 51.35718 2.71642 35999 ft 443 kts 277°
2026-05-04 15:03 51.36903 2.61969 35998 ft 443 kts 277°
2026-05-04 15:03 51.38080 2.52284 35999 ft 443 kts 277°
2026-05-04 15:04 51.39052 2.44234 35981 ft 443 kts 277°
2026-05-04 15:04 51.40225 2.34481 36000 ft 443 kts 277°
2026-05-04 15:05 51.41375 2.24852 35996 ft 443 kts 277°
2026-05-04 15:05 51.42557 2.15166 35997 ft 443 kts 278°
2026-05-04 15:06 51.43743 2.05455 35999 ft 444 kts 277°
2026-05-04 15:07 51.45490 1.90877 35993 ft 444 kts 277°
2026-05-04 15:07 51.46627 1.81156 35995 ft 444 kts 277°
2026-05-04 15:08 51.47743 1.71386 35995 ft 444 kts 277°
2026-05-04 15:08 51.48845 1.61695 35995 ft 445 kts 277°
2026-05-04 15:09 51.49952 1.51911 35999 ft 445 kts 277°
2026-05-04 15:09 51.51053 1.42122 36002 ft 446 kts 277°
2026-05-04 15:10 51.52690 1.27419 36000 ft 446 kts 277°
2026-05-04 15:11 51.54289 1.12748 36006 ft 446 kts 275°
2026-05-04 15:11 51.55003 1.02844 36016 ft 445 kts 272°
2026-05-04 15:12 51.55576 0.92943 36015 ft 446 kts 272°
2026-05-04 15:12 51.56164 0.83037 36023 ft 446 kts 273°
2026-05-04 15:13 51.56772 0.73096 36021 ft 446 kts 273°
2026-05-04 15:13 51.57382 0.63153 36024 ft 447 kts 273°
2026-05-04 15:14 51.57984 0.53196 36023 ft 447 kts 273°
2026-05-04 15:14 51.58574 0.43289 36015 ft 448 kts 273°
2026-05-04 15:15 51.59159 0.33325 36022 ft 448 kts 273°
2026-05-04 15:15 51.59711 0.23771 36014 ft 449 kts 273°
2026-05-04 15:16 51.60552 0.08958 36028 ft 450 kts 273°
2026-05-04 15:17 51.61384 -0.06000 36016 ft 450 kts 272°
2026-05-04 15:17 51.62251 -0.21095 36071 ft 451 kts 274°
2026-05-04 15:18 51.62871 -0.31074 36075 ft 450 kts 274°
2026-05-04 15:19 51.63783 -0.46103 36028 ft 451 kts 274°
2026-05-04 15:19 51.64678 -0.61360 36028 ft 459 kts 274°
2026-05-04 15:20 51.65268 -0.71625 36020 ft 461 kts 274°
2026-05-04 15:20 51.65850 -0.81901 36020 ft 462 kts 274°
2026-05-04 15:21 51.66424 -0.92192 36018 ft 462 kts 274°
2026-05-04 15:22 51.67270 -1.07659 36016 ft 460 kts 273°
2026-05-04 15:22 51.68088 -1.23006 36024 ft 458 kts 273°
2026-05-04 15:23 51.68620 -1.33201 36050 ft 462 kts 273°
2026-05-04 15:23 51.69153 -1.43585 36047 ft 465 kts 273°
2026-05-04 15:24 51.70199 -1.64473 36045 ft 469 kts 273°
2026-05-04 15:25 51.70670 -1.74934 36035 ft 467 kts 272°
2026-05-04 15:26 51.71203 -1.90508 36028 ft 462 kts 272°
2026-05-04 15:26 51.71718 -2.06028 36046 ft 465 kts 272°
2026-05-04 15:27 51.72233 -2.21711 36041 ft 467 kts 272°
2026-05-04 15:28 51.72729 -2.37343 36032 ft 466 kts 272°
2026-05-04 15:29 51.73204 -2.53003 36037 ft 467 kts 272°
2026-05-04 15:30 51.74233 -2.89692 36050 ft 467 kts 271°
2026-05-04 15:31 51.74638 -3.05358 36056 ft 469 kts 271°
2026-05-04 15:32 51.75271 -3.31629 36033 ft 469 kts 271°
2026-05-04 15:34 51.75845 -3.57974 36011 ft 470 kts 271°
2026-05-04 15:34 51.76162 -3.73766 36008 ft 468 kts 271°
2026-05-04 15:35 51.76455 -3.89465 36011 ft 468 kts 271°
2026-05-04 15:36 51.76730 -4.05327 36013 ft 473 kts 271°
2026-05-04 15:36 51.76903 -4.15961 36006 ft 475 kts 271°
2026-05-04 15:37 51.77066 -4.26617 36014 ft 475 kts 271°
2026-05-04 15:37 51.77221 -4.37292 36011 ft 475 kts 271°
2026-05-04 15:38 51.77365 -4.47947 36012 ft 475 kts 271°
2026-05-04 15:38 51.77501 -4.58624 36015 ft 475 kts 271°
2026-05-04 15:39 51.77746 -4.69274 36023 ft 475 kts 273°
2026-05-04 15:40 51.78220 -4.85148 36016 ft 472 kts 273°
2026-05-04 15:40 51.78511 -4.95747 36020 ft 472 kts 272°
2026-05-04 15:41 51.78782 -5.06329 36024 ft 471 kts 272°
2026-05-04 15:41 51.79039 -5.16925 36026 ft 472 kts 272°
2026-05-04 15:42 51.79288 -5.27542 36031 ft 474 kts 272°
2026-05-04 15:42 51.79528 -5.38194 36029 ft 475 kts 272°
2026-05-04 15:43 51.79760 -5.48885 36034 ft 477 kts 272°
2026-05-04 15:43 51.79872 -5.54231 35885 ft 478 kts 272°
2026-05-04 15:43 51.79983 -5.59615 35332 ft 478 kts 272°
2026-05-04 15:43 51.80088 -5.64889 34807 ft 475 kts 273°
2026-05-04 15:44 51.80193 -5.70229 34234 ft 474 kts 273°
2026-05-04 15:44 51.80295 -5.75552 33525 ft 475 kts 273°
2026-05-04 15:44 51.80395 -5.80891 32837 ft 475 kts 273°
2026-05-04 15:44 51.80492 -5.86224 32169 ft 475 kts 274°
2026-05-04 15:45 51.80587 -5.91560 31492 ft 476 kts 274°
2026-05-04 15:45 51.80680 -5.96907 30820 ft 476 kts 274°
2026-05-04 15:45 51.80771 -6.02278 30081 ft 478 kts 275°
2026-05-04 15:45 51.80860 -6.07663 29235 ft 480 kts 274°
2026-05-04 15:46 51.80947 -6.13052 28423 ft 479 kts 274°
2026-05-04 15:46 51.81031 -6.18423 27619 ft 479 kts 274°
2026-05-04 15:46 51.81112 -6.23807 26945 ft 476 kts 274°
2026-05-04 15:46 51.81189 -6.29120 26409 ft 470 kts 274°
2026-05-04 15:47 51.81262 -6.34380 25843 ft 465 kts 273°
2026-05-04 15:47 51.81333 -6.39587 25277 ft 461 kts 273°
2026-05-04 15:47 51.81401 -6.44740 24719 ft 456 kts 273°
2026-05-04 15:47 51.81467 -6.49839 24153 ft 453 kts 273°
2026-05-04 15:48 51.81530 -6.54909 23572 ft 449 kts 273°
2026-05-04 15:48 51.81591 -6.59938 22916 ft 445 kts 272°
2026-05-04 15:48 51.81703 -6.69774 21768 ft 436 kts 272°
2026-05-04 15:49 51.81755 -6.74641 21213 ft 431 kts 272°
2026-05-04 15:49 51.81805 -6.79456 20680 ft 426 kts 272°
2026-05-04 15:49 51.81852 -6.84219 20134 ft 422 kts 272°
2026-05-04 15:49 51.81897 -6.88932 19600 ft 417 kts 272°
2026-05-04 15:50 51.81940 -6.93600 19077 ft 413 kts 271°
2026-05-04 15:50 51.81981 -6.98230 18553 ft 410 kts 271°
2026-05-04 15:50 51.82019 -7.02812 17986 ft 406 kts 271°
2026-05-04 15:50 51.82055 -7.07360 17408 ft 402 kts 271°
2026-05-04 15:51 51.82089 -7.11866 16867 ft 398 kts 271°
2026-05-04 15:51 51.82121 -7.16318 16347 ft 394 kts 271°
2026-05-04 15:51 51.82150 -7.20662 15842 ft 390 kts 271°
2026-05-04 15:51 51.82178 -7.25027 15346 ft 386 kts 271°
2026-05-04 15:52 51.82205 -7.29353 14845 ft 383 kts 271°
2026-05-04 15:52 51.82229 -7.33628 14356 ft 379 kts 271°
2026-05-04 15:52 51.82252 -7.37874 13867 ft 376 kts 271°
2026-05-04 15:52 51.82273 -7.42091 13321 ft 373 kts 271°
2026-05-04 15:53 51.82293 -7.46267 12806 ft 370 kts 271°
2026-05-04 15:53 51.82311 -7.50399 12402 ft 364 kts 271°
2026-05-04 15:53 51.82321 -7.53149 12188 ft 358 kts 271°
2026-05-04 15:53 51.82336 -7.57070 11884 ft 350 kts 271°
2026-05-04 15:54 51.82349 -7.60963 11624 ft 342 kts 271°
2026-05-04 15:54 51.82361 -7.64764 11369 ft 335 kts 271°
2026-05-04 15:54 51.82372 -7.68491 11113 ft 328 kts 271°
2026-05-04 15:54 51.82382 -7.72150 10849 ft 320 kts 271°
2026-05-04 15:55 51.82389 -7.75675 10591 ft 307 kts 271°
2026-05-04 15:55 51.82395 -7.79062 10334 ft 296 kts 271°
2026-05-04 15:55 51.82167 -7.82342 10070 ft 295 kts 250°
2026-05-04 15:55 51.81265 -7.85296 9842 ft 292 kts 240°
2026-05-04 15:56 51.80231 -7.88116 9580 ft 291 kts 239°
2026-05-04 15:56 51.79182 -7.90917 9317 ft 292 kts 239°
2026-05-04 15:56 51.78136 -7.93716 9072 ft 291 kts 239°
2026-05-04 15:56 51.77094 -7.96516 8811 ft 290 kts 239°
2026-05-04 15:57 51.76061 -7.99306 8516 ft 290 kts 239°
2026-05-04 15:57 51.75060 -8.02016 8203 ft 290 kts 240°
2026-05-04 15:57 51.74031 -8.04803 7905 ft 289 kts 240°
2026-05-04 15:57 51.73004 -8.07586 7606 ft 287 kts 240°
2026-05-04 15:58 51.71986 -8.10346 7316 ft 286 kts 240°
2026-05-04 15:58 51.70973 -8.13089 7054 ft 283 kts 240°
2026-05-04 15:58 51.69968 -8.15806 6784 ft 281 kts 240°
2026-05-04 15:58 51.68969 -8.18502 6508 ft 279 kts 240°
2026-05-04 15:59 51.68059 -8.21215 6158 ft 273 kts 249°
2026-05-04 15:59 51.67414 -8.24061 5772 ft 267 kts 253°
2026-05-04 15:59 51.66830 -8.26833 5386 ft 263 kts 253°
2026-05-04 15:59 51.66232 -8.29593 5002 ft 259 kts 252°
2026-05-04 16:00 51.65635 -8.32300 4645 ft 252 kts 253°
2026-05-04 16:00 51.65449 -8.34999 4211 ft 238 kts 283°
2026-05-04 16:00 51.66134 -8.37291 3784 ft 223 kts 318°
2026-05-04 16:00 51.67371 -8.38661 3390 ft 211 kts 333°
2026-05-04 16:01 51.68653 -8.39741 3028 ft 203 kts 335°
2026-05-04 16:01 51.69887 -8.40636 2961 ft 186 kts 340°
2026-05-04 16:01 51.71044 -8.41350 2941 ft 169 kts 341°
2026-05-04 16:01 51.72156 -8.42010 2848 ft 174 kts 341°
2026-05-04 16:02 51.73299 -8.42688 2615 ft 175 kts 342°
2026-05-04 16:02 51.74431 -8.43360 2391 ft 172 kts 342°
2026-05-04 16:02 51.76651 -8.44676 1919 ft 167 kts 341°
2026-05-04 16:03 51.77731 -8.45319 1690 ft 162 kts 342°
2026-05-04 16:03 51.78744 -8.45920 1518 ft 146 kts 342°
2026-05-04 16:03 51.79654 -8.46459 1317 ft 138 kts 342°
2026-05-04 16:03 51.80559 -8.47011 1066 ft 140 kts 341°
2026-05-04 16:04 51.81474 -8.47551 879 ft 139 kts 341°
2026-05-04 16:04 51.83218 -8.48575 493 ft 127 kts 341°
2026-05-04 16:04 51.83965 -8.49015 471 ft 91 kts 340°
2026-05-04 16:05 51.84363 -8.49247 482 ft 40 kts 339°
2026-05-04 16:05 51.84606 -8.49389 490 ft 31 kts 340°
2026-05-04 16:05 51.84775 -8.49425 491 ft 6 kts 59°
2026-05-04 16:06 51.84791 -8.49362 490 ft 6 kts 69°
2026-05-04 16:06 51.84785 -8.49096 502 ft 11 kts 65°
2026-05-04 16:07 51.84802 -8.49024 502 ft 0 kts 70°